Home   Weather   Richmond   Past weeks

Flag for Canada Past Weather in Richmond, British Columbia, Canada — Yesterday and Last 2 Weeks

Now
48 °F

Passing clouds.


Feels Like: 44 °F
Forecast: 44 / 56 °F
Wind: 9 mph from West

Location: Vancouver International Airport

Current Time: Apr 30, 2017 at 8:05:57 am

Latest Report: Apr 30, 2017 at 7:00 am


Visibility: 20 mi

Pressure: 30.15 "Hg

Humidity: 76%

Dew Point: 41 °F

Location of RichmondLocation

Past Weather in Richmond — Graph

°F

Richmond Temperature Yesterday

Maximum temperature yesterday: 50 °F (at 10:00 am)
Minimum temperature yesterday: 46 °F (at 4:00 am)
Average temperature yesterday: 48 °F

High & Low Weather Summary for the Past Weeks

 TemperatureHumidityPressure
High59 °F (Apr 26, 2:00 pm)100% (Apr 18, 9:00 am)30.42 "Hg (Apr 18, 9:00 am)
Low37 °F (Apr 16, 6:00 am)45% (Apr 26, 3:00 pm)29.71 "Hg (Apr 26, 4:42 am)
Average50 °F80%29.99 "Hg
* Reported Apr 15 7:00 am — Apr 30 7:00 am, Richmond, Weather by CustomWeather, © 2017

Note: Actual official high and low records may vary slightly from our data, if they occured in-between our weather recording intervals... More about our weather records

Advertising

Richmond Weather History for the Previous 24 Hours

Scroll right to see more
 ConditionsComfort  
Time TempWeatherWind HumidityBarometerVisibility
7:00 am
Sun, Apr 30
48 °FPassing clouds.9 mph76%30.15 "Hg20 mi
6:00 am46 °FPassing clouds.12 mph76%30.11 "Hg20 mi
5:00 am46 °FPassing clouds.10 mph82%30.10 "Hg15 mi
4:00 am45 °FPassing clouds.3 mph93%30.08 "Hg15 mi
3:00 am46 °FPassing clouds.3 mph93%30.08 "Hg15 mi
2:00 am43 °FPassing clouds.7 mph100%30.06 "Hg15 mi
1:00 am45 °FPassing clouds.7 mph100%30.06 "Hg15 mi
12:00 am46 °FMostly cloudy.9 mph93%30.06 "Hg15 mi
11:00 pm
Sat, Apr 29
48 °FMostly cloudy.9 mph87%30.06 "Hg12 mi
10:00 pm48 °FMostly cloudy.12 mph87%30.05 "Hg12 mi
9:00 pm46 °FMostly cloudy.10 mph93%30.05 "Hg12 mi
8:00 pm46 °FOvercast.12 mph93%30.06 "Hg12 mi
7:33 pm46 °FMostly cloudy.12 mph93%30.07 "Hg12 mi
7:00 pm46 °FLight rain. Mostly cloudy.10 mph93%30.08 "Hg8 mi
6:00 pm48 °FLight rain. Mostly cloudy.8 mph87%30.10 "Hg8 mi
5:00 pm48 °FMostly cloudy.9 mph87%30.12 "Hg8 mi
4:00 pm48 °FLight rain. Cloudy.9 mph87%30.13 "Hg15 mi
3:00 pm50 °FLight rain. Cloudy.10 mph82%30.15 "Hg12 mi
2:00 pm50 °FLight rain. Mostly cloudy.10 mph82%30.18 "Hg12 mi
1:00 pm48 °FLight rain. Cloudy.14 mph87%30.17 "Hg10 mi
12:00 pm50 °FLight rain. Cloudy.13 mph76%30.21 "Hg12 mi
11:00 am50 °FCloudy.12 mph76%30.23 "Hg15 mi
10:00 am50 °FMostly cloudy.15 mph76%30.24 "Hg20 mi
9:00 am48 °FOvercast.15 mph76%30.26 "Hg20 mi
8:00 am48 °FMore clouds than sun.12 mph76%30.29 "Hg20 mi
Weather by CustomWeather, © 2017

See weather overviewHow to use our weather pages